Location: *
(90.0000°N, 180.0000°W)
Time: 14:29:31
(UTC+01:00)

Okean O Rocket - Visible Passes

Search period start: 06 February 2016 00:00
Search period end: 16 February 2016 00:00
Orbit: 624 x 645 km, 98.0° (Epoch: 05 February)

Date Brightness Start Highest point End Pass type
(mag) Time Alt. Az. Time Alt. Az. Time Alt. Az.
06 Feb 3.3 00:14:31 10° SSE 00:18:33 31° SW 00:22:33 10° W visible
06 Feb 3.3 01:52:00 10° S 01:56:01 31° WSW 02:00:02 10° WNW visible
06 Feb 3.3 03:29:28 10° SSW 03:33:29 31° W 03:37:30 10° NW visible
06 Feb 3.3 05:06:56 10° SW 05:10:57 31° WNW 05:14:58 10° N visible
06 Feb 3.3 06:44:24 10° WSW 06:48:26 31° NW 06:52:26 10° NNE visible
06 Feb 3.3 08:21:53 10° W 08:25:54 31° NNW 08:29:54 10° NE visible
06 Feb 3.3 09:59:21 10° WNW 10:03:22 31° N 10:07:23 10° ENE visible
06 Feb 3.3 11:36:49 10° NW 11:40:50 31° NNE 11:44:51 10° E visible
06 Feb 3.3 13:14:17 10° NNW 13:18:19 31° NE 13:22:19 10° ESE visible
06 Feb 3.3 14:51:46 10° N 14:55:47 31° ENE 14:59:47 10° SE visible
06 Feb 3.3 16:29:14 10° NE 16:33:15 31° E 16:37:15 10° SSE visible
06 Feb 3.3 18:06:42 10° ENE 18:10:43 31° ESE 18:14:44 10° S visible
06 Feb 3.3 19:44:11 10° E 19:48:12 31° SSE 19:52:12 10° SSW visible
06 Feb 3.3 21:21:39 10° ESE 21:25:40 31° S 21:29:40 10° SW visible
06 Feb 3.3 22:59:07 10° SE 23:03:08 31° SSW 23:07:08 10° WSW visible
07 Feb 3.3 00:36:35 10° SSE 00:40:36 31° SW 00:44:37 10° WNW visible
07 Feb 3.3 02:14:03 10° S 02:18:05 31° WSW 02:22:05 10° NW visible
07 Feb 3.3 03:51:32 10° SSW 03:55:32 31° W 03:59:33 10° NNW visible
07 Feb 3.3 05:29:00 10° SW 05:33:01 31° WNW 05:37:01 10° N visible
07 Feb 3.3 07:06:28 10° WSW 07:10:29 31° NW 07:14:29 10° NNE visible
07 Feb 3.3 08:43:56 10° W 08:47:58 31° NNW 08:51:57 10° NE visible
07 Feb 3.3 10:21:25 10° WNW 10:25:25 31° N 10:29:26 10° ENE visible
07 Feb 3.3 11:58:53 10° NNW 12:02:54 31° NNE 12:06:54 10° E visible
07 Feb 3.3 13:36:21 10° N 13:40:22 31° NE 13:44:22 10° ESE visible
07 Feb 3.3 15:13:49 10° NNE 15:17:50 31° ENE 15:21:50 10° SE visible
07 Feb 3.3 16:51:17 10° NE 16:55:18 31° ESE 16:59:19 10° SSE visible
07 Feb 3.3 18:28:46 10° ENE 18:32:46 31° SE 18:36:47 10° S visible
07 Feb 3.3 20:06:14 10° E 20:10:15 31° SSE 20:14:15 10° SW visible
07 Feb 3.3 21:43:42 10° ESE 21:47:43 31° S 21:51:43 10° WSW visible
07 Feb 3.3 23:21:10 10° SE 23:25:11 31° SSW 23:29:12 10° W visible
08 Feb 3.3 00:58:38 10° SSE 01:02:39 31° SW 01:06:39 10° WNW visible
08 Feb 3.3 02:36:07 10° S 02:40:08 31° WSW 02:44:08 10° NW visible
08 Feb 3.3 04:13:35 10° SSW 04:17:36 31° W 04:21:36 10° NNW visible
08 Feb 3.3 05:51:03 10° SW 05:55:04 31° WNW 05:59:04 10° N visible
08 Feb 3.3 07:28:31 10° W 07:32:32 31° NW 07:36:32 10° NNE visible
08 Feb 3.3 09:06:00 10° WNW 09:10:01 31° NNW 09:14:01 10° NE visible
08 Feb 3.3 10:43:28 10° NW 10:47:28 31° N 10:51:29 10° ENE visible
08 Feb 3.3 12:20:56 10° NNW 12:24:57 31° NE 12:28:57 10° E visible
08 Feb 3.3 13:58:24 10° N 14:02:25 31° ENE 14:06:25 10° ESE visible
08 Feb 3.3 15:35:53 10° NNE 15:39:53 31° E 15:43:54 10° SSE visible
08 Feb 3.3 17:13:21 10° NE 17:17:21 31° ESE 17:21:21 10° S visible
08 Feb 3.3 18:50:49 10° ENE 18:54:50 31° SE 18:58:50 10° SSW visible
08 Feb 3.3 20:28:17 10° E 20:32:18 31° SSE 20:36:18 10° SW visible
08 Feb 3.3 22:05:46 10° ESE 22:09:46 31° S 22:13:47 10° WSW visible
08 Feb 3.3 23:43:14 10° SE 23:47:14 31° SSW 23:51:14 10° W visible
09 Feb 3.3 01:20:42 10° SSE 01:24:43 31° SW 01:28:43 10° WNW visible
09 Feb 3.3 02:58:10 10° SSW 03:02:11 31° WSW 03:06:11 10° NW visible
09 Feb 3.3 04:35:38 10° SW 04:39:39 31° W 04:43:40 10° NNW visible
09 Feb 3.3 06:13:06 10° WSW 06:17:07 31° WNW 06:21:07 10° N visible
09 Feb 3.3 07:50:35 10° W 07:54:36 31° NNW 07:58:36 10° NNE visible
09 Feb 3.3 09:28:03 10° WNW 09:32:04 31° N 09:36:04 10° NE visible
09 Feb 3.3 11:05:31 10° NW 11:09:32 31° NNE 11:13:32 10° E visible
09 Feb 3.3 12:42:59 10° NNW 12:47:00 31° NE 12:51:00 10° ESE visible
09 Feb 3.3 14:20:28 10° N 14:24:29 31° ENE 14:28:29 10° SE visible
09 Feb 3.3 15:57:56 10° NNE 16:01:57 31° E 16:05:56 10° SSE visible
09 Feb 3.3 17:35:24 10° NE 17:39:25 31° ESE 17:43:25 10° S visible
09 Feb 3.4 19:12:52 10° ENE 19:16:53 31° SE 19:20:53 10° SSW visible
09 Feb 3.3 20:50:21 10° E 20:54:22 31° SSE 20:58:21 10° SW visible
09 Feb 3.3 22:27:49 10° SE 22:31:50 31° S 22:35:49 10° WSW visible
10 Feb 3.3 00:05:17 10° SSE 00:09:18 31° SSW 00:13:18 10° W visible
10 Feb 3.3 01:42:45 10° S 01:46:46 31° SW 01:50:46 10° WNW visible
10 Feb 3.3 03:20:14 10° SSW 03:24:15 31° W 03:28:14 10° NW visible
10 Feb 3.4 04:57:42 10° SW 05:01:43 31° WNW 05:05:42 10° NNW visible
10 Feb 3.3 06:35:10 10° WSW 06:39:11 31° NW 06:43:11 10° NNE visible
10 Feb 3.4 08:12:38 10° W 08:16:39 31° NNW 08:20:38 10° NE visible
10 Feb 3.4 09:50:07 10° WNW 09:54:07 31° N 09:58:07 10° ENE visible
10 Feb 3.4 11:27:35 10° NW 11:31:35 31° NNE 11:35:35 10° E visible
10 Feb 3.4 13:05:02 10° NNW 13:09:03 31° NE 13:13:03 10° ESE visible
10 Feb 3.4 14:42:31 10° N 14:46:32 31° ENE 14:50:31 10° SE visible
10 Feb 3.4 16:20:00 10° NNE 16:24:00 31° E 16:28:00 10° SSE visible
10 Feb 3.4 17:57:28 10° ENE 18:01:28 31° ESE 18:05:28 10° S visible
10 Feb 3.4 19:34:56 10° E 19:38:56 31° SE 19:42:56 10° SSW visible
10 Feb 3.4 21:12:24 10° ESE 21:16:25 31° SSE 21:20:25 10° SW visible
10 Feb 3.4 22:49:52 10° SE 22:53:53 31° SSW 22:57:53 10° WSW visible
11 Feb 3.4 00:27:20 10° SSE 00:31:21 31° SW 00:35:21 10° W visible
11 Feb 3.4 02:04:49 10° S 02:08:49 31° WSW 02:12:50 10° NW visible
11 Feb 3.4 03:42:17 10° SSW 03:46:18 31° W 03:50:18 10° NNW visible
11 Feb 3.4 05:19:45 10° SW 05:23:46 31° WNW 05:27:46 10° N visible
11 Feb 3.4 06:57:13 10° WSW 07:01:14 31° NW 07:05:14 10° NNE visible
11 Feb 3.4 08:34:42 10° W 08:38:43 31° NNW 08:42:42 10° NE visible
11 Feb 3.4 10:12:10 10° WNW 10:16:10 31° N 10:20:10 10° ENE visible
11 Feb 3.4 11:49:38 10° NW 11:53:39 31° NNE 11:57:39 10° E visible
11 Feb 3.4 13:27:06 10° N 13:31:07 31° NE 13:35:07 10° ESE visible
11 Feb 3.4 15:04:34 10° NNE 15:08:35 31° ENE 15:12:35 10° SE visible
11 Feb 3.4 16:42:03 10° NE 16:46:03 31° E 16:50:03 10° SSE visible
11 Feb 3.4 18:19:31 10° ENE 18:23:31 31° SE 18:27:31 10° S visible
11 Feb 3.4 19:56:59 10° E 20:01:00 31° SSE 20:04:59 10° SSW visible
11 Feb 3.4 21:34:27 10° ESE 21:38:27 31° S 21:42:28 10° WSW visible
11 Feb 3.4 23:11:56 10° SE 23:15:56 31° SSW 23:19:56 10° W visible
12 Feb 3.4 00:49:24 10° SSE 00:53:24 31° SW 00:57:24 10° WNW visible
12 Feb 3.4 02:26:52 10° S 02:30:53 31° WSW 02:34:52 10° NW visible
12 Feb 3.4 04:04:20 10° SSW 04:08:21 31° W 04:12:21 10° NNW visible
12 Feb 3.4 05:41:49 10° SW 05:45:49 31° WNW 05:49:49 10° N visible
12 Feb 3.4 07:19:16 10° WSW 07:23:17 31° NW 07:27:17 10° NNE visible
12 Feb 3.4 08:56:45 10° WNW 09:00:46 31° NNW 09:04:45 10° NE visible
12 Feb 3.4 10:34:14 10° NW 10:38:14 31° N 10:42:13 10° ENE visible
12 Feb 3.4 12:11:42 10° NNW 12:15:42 31° NNE 12:19:42 10° E visible
12 Feb 3.4 13:49:10 10° N 13:53:10 31° ENE 13:57:10 10° ESE visible
12 Feb 3.4 15:26:38 10° NNE 15:30:38 31° E 15:34:38 10° SE visible
12 Feb 3.4 17:04:06 10° NE 17:08:07 31° ESE 17:12:06 10° S visible
12 Feb 3.4 18:41:34 10° ENE 18:45:35 31° SE 18:49:34 10° SSW visible
12 Feb 3.4 20:19:03 10° E 20:23:03 31° SSE 20:27:02 10° SW visible
12 Feb 3.4 21:56:31 10° ESE 22:00:31 31° S 22:04:31 10° WSW visible
12 Feb 3.4 23:33:59 10° SE 23:38:00 31° SSW 23:41:59 10° W visible
13 Feb 3.4 01:11:27 10° SSE 01:15:27 31° SW 01:19:27 10° WNW visible
13 Feb 3.4 02:48:55 10° S 02:52:56 31° WSW 02:56:55 10° NW visible
13 Feb 3.4 04:26:24 10° SW 04:30:24 31° W 04:34:24 10° NNW visible
13 Feb 3.4 06:03:52 10° WSW 06:07:52 31° WNW 06:11:52 10° N visible
13 Feb 3.4 07:41:20 10° W 07:45:20 31° NW 07:49:20 10° NNE visible
13 Feb 3.4 09:18:48 10° WNW 09:22:49 31° N 09:26:48 10° NE visible
13 Feb 3.4 10:56:17 10° NW 11:00:17 31° NNE 11:04:16 10° ENE visible
13 Feb 3.4 12:33:45 10° NNW 12:37:45 31° NE 12:41:44 10° ESE visible
13 Feb 3.4 14:11:13 10° N 14:15:13 31° ENE 14:19:13 10° SE visible
13 Feb 3.4 15:48:41 10° NNE 15:52:41 31° E 15:56:41 10° SSE visible
13 Feb 3.4 17:26:10 10° NE 17:30:10 31° ESE 17:34:09 10° S visible
13 Feb 3.4 19:03:38 10° ENE 19:07:38 31° SE 19:11:37 10° SSW visible
13 Feb 3.4 20:41:06 10° E 20:45:06 31° SSE 20:49:06 10° SW visible
13 Feb 3.4 22:18:34 10° ESE 22:22:34 31° S 22:26:33 10° WSW visible
13 Feb 3.4 23:56:02 10° SE 00:00:03 31° SSW 00:04:02 10° W visible
14 Feb 3.4 01:33:31 10° S 01:37:30 31° SW 01:41:30 10° WNW visible
14 Feb 3.4 03:10:59 10° SSW 03:14:59 31° WSW 03:18:58 10° NW visible
14 Feb 3.4 04:48:27 10° SW 04:52:27 31° WNW 04:56:26 10° NNW visible
14 Feb 3.4 06:25:55 10° WSW 06:29:55 31° NW 06:33:55 10° N visible
14 Feb 3.4 08:03:23 10° W 08:07:23 31° NNW 08:11:22 10° NE visible
14 Feb 3.4 09:40:52 10° WNW 09:44:52 31° N 09:48:51 10° ENE visible
14 Feb 3.4 11:18:20 10° NW 11:22:20 31° NNE 11:26:19 10° E visible
14 Feb 3.4 12:55:48 10° NNW 12:59:48 31° NE 13:03:48 10° ESE visible
14 Feb 3.4 14:33:16 10° N 14:37:16 31° ENE 14:41:15 10° SE visible
14 Feb 3.4 16:10:45 10° NNE 16:14:45 31° E 16:18:44 10° SSE visible
14 Feb 3.4 17:48:13 10° NE 17:52:13 31° ESE 17:56:12 10° S visible
14 Feb 3.4 19:25:41 10° ENE 19:29:41 31° SE 19:33:41 10° SSW visible
14 Feb 3.4 21:03:09 10° ESE 21:07:09 31° SSE 21:11:08 10° SW visible
14 Feb 3.4 22:40:37 10° SE 22:44:38 31° S 22:48:37 10° WSW visible
15 Feb 3.4 00:18:05 10° SSE 00:22:06 31° SW 00:26:04 10° W visible
15 Feb 3.4 01:55:34 10° S 01:59:34 31° WSW 02:03:33 10° WNW visible
15 Feb 3.4 03:33:02 10° SSW 03:37:02 31° W 03:41:01 10° NNW visible
15 Feb 3.4 05:10:30 10° SW 05:14:31 31° WNW 05:18:29 10° N visible
15 Feb 3.4 06:47:58 10° WSW 06:51:59 31° NW 06:55:57 10° NNE visible
15 Feb 3.4 08:25:27 10° W 08:29:27 31° NNW 08:33:26 10° NE visible
15 Feb 3.4 10:02:55 10° WNW 10:06:56 31° N 10:10:54 10° ENE visible
15 Feb 3.4 11:40:23 10° NW 11:44:24 31° NNE 11:48:22 10° E visible
15 Feb 3.4 13:17:51 10° NNW 13:21:51 31° NE 13:25:50 10° ESE visible
15 Feb 3.4 14:55:20 10° N 14:59:20 31° ENE 15:03:19 10° SE visible
15 Feb 3.4 16:32:48 10° NE 16:36:48 31° E 16:40:46 10° SSE visible
15 Feb 3.4 18:10:16 10° ENE 18:14:16 31° ESE 18:18:15 10° S visible
15 Feb 3.4 19:47:44 10° E 19:51:44 31° SSE 19:55:43 10° SSW visible
15 Feb 3.4 21:25:12 10° ESE 21:29:13 31° S 21:33:11 10° SW visible
15 Feb 3.4 23:02:41 10° SE 23:06:41 31° SSW 23:10:39 10° W visible
